Location: Bieg
(49.3499°N, 10.3835°E)
Time: 01:50:19
(UTC+00:00)

Cosmos 1346 Rocket - Pass Details

Date: 14 August 2024
Orbit: 503 x 516 km, 81.2° (Epoch: 08 September)

Event Time Altitude Azimuth Distance (km) Brightness Sun altitude
Exits shadow 02:30:32 23° 255° (WSW) 1,128 3.9 -14.2°
Maximum altitude 02:31:52 28° 290° (WNW) 972 3.8 -14.0°
Drops below altitude 10° 02:35:11 10° 351° (N) 1,727 5.8 -13.6°
Sets 02:37:33 0° 4° (N) 2,618 7.0 -13.4°
